Location: Unspecified
(0.0000°N, 0.0000°E)
Time: 09:08:51
(UTC+00:00)

SJ 16-02 DEB - Visible Passes

Search period start: 28 November 2020 00:00
Search period end: 08 December 2020 00:00
Orbit: 601 x 945 km, 75.0° (Epoch: 28 November)

Date Brightness Start Highest point End Pass type
(mag) Time Alt. Az. Time Alt. Az. Time Alt. Az.
28 Nov ? 19:23:44 10° SW 19:29:19 36° W 19:34:53 10° NNW visible
29 Nov ? 18:47:43 10° SSW 18:53:50 66° W 18:59:57 10° N visible
30 Nov ? 18:12:14 10° S 18:18:24 69° E 18:24:29 10° NNE visible
01 Dec ? 19:20:38 10° WSW 19:24:42 18° W 19:28:43 10° NW visible
02 Dec ? 18:43:45 10° SW 18:49:13 33° W 18:54:39 10° NNW visible
03 Dec ? 18:07:39 10° SSW 18:13:46 61° W 18:19:46 10° N visible
04 Dec ? 05:01:54 10° NE 05:04:53 18° E 05:07:54 10° ESE visible
05 Dec ? 18:40:50 10° WSW 18:44:35 17° W 18:48:17 10° NW visible
07 Dec ? 04:55:58 10° N 05:00:03 45° E 05:04:16 10° SSE visible
